Weather History for Simferopol, Ukraine

Change the Weather History Date:

Friday, October 12, 2012

  Actual Average Record
Temperature  
Mean Temperature 56 °F -  
Max Temperature 66 °F - - ()
Min Temperature 46 °F - - ()
Degree Days  
Heating Degree Days 9    
Growing Degree Days 6 (Base 50)    
Moisture  
Dew Point 42 °F    
Average Humidity 66    
Maximum Humidity 100    
Minimum Humidity 20    
Precipitation  
Precipitation 0.00 in - - ()
Sea Level Pressure  
Sea Level Pressure 30.01 in    
Wind  
Wind Speed 5 mph ()    
Max Wind Speed 18 mph    
Max Gust Speed -    
Visibility 5.1 miles    
Events Fog    
T = Trace of Precipitation, MM = Missing Value Source: Averaged Metar Reports

Daily Weather History Graph

Daily Weather History Graph

Search for Another Location

Airport:

Trip Planner

Search our weather history database for the weather conditions in past years. The results will help you decide how hot, cold, wet, or windy it might be!

Date:

Astronomy

Oct. 12, 2012 Rise Set
Actual Time 6:56 AM EEST 6:04 PM EEST
Civil Twilight 6:26 AM EEST 6:33 PM EEST
Nautical Twilight 5:52 AM EEST 7:07 PM EEST
Astronomical Twilight 5:18 AM EEST 7:41 PM EEST
Moon 3:08 AM EEST (10/12) 4:09 PM EEST (10/12)
Length of Visible Light 12h 06m
Length of Day
11h 07m
Waning Crescent, 13% of the Moon is Illuminated
Oct 12
Waning Crescent
Oct 15
New
Oct 22
First Quarter
Oct 29
Full
Nov 7
Last Quarter

Hourly Weather History & Observations

Time (EEST) Temp. Windchill Dew Point Humidity Pressure Visibility Wind Dir Wind Speed Gust Speed Precip Events Conditions
12:00 AM 50 °F - 49 °F 95% 29.88 in 3 mi Calm Calm - -   Mist
12:00 AM 50.0 °F - 50.0 °F 100% 29.86 in 3.1 mi North 4.5 mph - N/A   Clear
12:30 AM 50.0 °F - 50.0 °F 100% 29.86 in - Calm Calm - N/A Fog Patches of Fog
1:00 AM 50.0 °F - 50.0 °F 100% 29.89 in 1.9 mi Calm Calm - N/A Fog Patches of Fog
1:30 AM 50.0 °F - 48.2 °F 94% 29.89 in - Calm Calm - N/A Fog Patches of Fog
2:00 AM 50.0 °F - 50.0 °F 100% 29.89 in 3.1 mi Calm Calm - N/A Fog Patches of Fog
2:30 AM 50.0 °F - 48.2 °F 94% 29.89 in - Calm Calm - N/A   Clear
3:00 AM 51 °F - 49 °F 91% 29.92 in 3 mi Calm Calm - -   Mist
3:00 AM 50.0 °F - 48.2 °F 94% 29.89 in - West 4.5 mph - N/A   Clear
3:30 AM 48.2 °F - 46.4 °F 93% 29.92 in - Calm Calm - N/A   Clear
4:00 AM 48.2 °F - 46.4 °F 93% 29.92 in - SSE 2.2 mph - N/A   Clear
4:30 AM 46.4 °F 43.0 °F 46.4 °F 100% 29.92 in - WSW 6.7 mph - N/A   Clear
5:00 AM 48.2 °F - 46.4 °F 93% 29.95 in 3.1 mi South 6.7 mph - N/A   Clear
5:30 AM 48.2 °F - 48.2 °F 100% 29.95 in 3.1 mi South 4.5 mph - N/A   Clear
6:00 AM 49 °F - 47 °F 88% 29.97 in 6 mi SSE 4.5 mph - -   Mostly Cloudy
6:00 AM 48.2 °F - 46.4 °F 93% 29.95 in - South 6.7 mph - N/A   Clear
6:30 AM 48.2 °F - 46.4 °F 93% 29.95 in - South 6.7 mph - N/A   Clear
7:00 AM 46.4 °F 43.0 °F 44.6 °F 93% 29.95 in - South 6.7 mph - N/A   Clear
7:30 AM 46.4 °F 43.0 °F 44.6 °F 93% 29.98 in - SSE 6.7 mph - N/A   Clear
8:00 AM 50.0 °F - 48.2 °F 94% 29.98 in 6.2 mi SSE 6.7 mph - N/A   Partly Cloudy
8:30 AM 53.6 °F - 50.0 °F 88% 29.98 in - SSE 6.7 mph - N/A   Partly Cloudy
9:00 AM 56 °F - 50 °F 75% 30.00 in 6 mi South 4.5 mph - -   Scattered Clouds
9:00 AM 57.2 °F - 50.0 °F 77% 29.98 in - Variable 4.5 mph - N/A   Clear
9:30 AM 60.8 °F - 46.4 °F 59% 30.01 in 6.2 mi Calm Calm - N/A   Partly Cloudy
10:00 AM 60.8 °F - 46.4 °F 59% 30.01 in 6.2 mi Variable 2.2 mph - N/A   Scattered Clouds
10:30 AM 62.6 °F - 46.4 °F 55% 30.01 in 6.2 mi WSW 6.7 mph - N/A   Mostly Cloudy
11:00 AM 64.4 °F - 46.4 °F 52% 30.01 in 6.2 mi West 8.9 mph - N/A   Mostly Cloudy
11:30 AM 62.6 °F - 46.4 °F 55% 30.01 in 6.2 mi West 13.4 mph - N/A   Mostly Cloudy
12:00 PM 64 °F - 45 °F 39% 30.02 in 6 mi West 13.4 mph - -   Partly Cloudy
12:00 PM 64.4 °F - 46.4 °F 52% 30.01 in 6.2 mi WNW 13.4 mph - N/A   Mostly Cloudy
12:30 PM 64.4 °F - 46.4 °F 52% 30.01 in 6.2 mi West 15.7 mph - N/A   Mostly Cloudy
1:00 PM 62.6 °F - 46.4 °F 55% 30.04 in 6.2 mi WSW 15.7 mph - N/A   Mostly Cloudy
1:30 PM 66.2 °F - 39.2 °F 37% 30.04 in 6.2 mi WSW 15.7 mph - N/A   Mostly Cloudy
2:00 PM 66.2 °F - 41.0 °F 40% 30.04 in 6.2 mi West 13.4 mph - N/A   Scattered Clouds
2:30 PM 66.2 °F - 37.4 °F 35% 30.04 in 6.2 mi WNW 13.4 mph - N/A   Partly Cloudy
3:00 PM 65 °F - 35 °F 21% 30.06 in 6 mi West 15.7 mph - -   Scattered Clouds
3:00 PM 64.4 °F - 32.0 °F 30% 30.06 in 6.2 mi WSW 15.7 mph - N/A   Partly Cloudy
3:30 PM 64.4 °F - 37.4 °F 37% 30.06 in - WSW 17.9 mph - N/A   Clear
4:00 PM 64.4 °F - 35.6 °F 34% 30.06 in - WSW 13.4 mph - N/A   Clear
4:30 PM 64.4 °F - 33.8 °F 32% 30.06 in - WSW 11.2 mph - N/A   Clear
5:00 PM 62.6 °F - 32.0 °F 32% 30.06 in - West 13.4 mph - N/A   Clear
5:30 PM 60.8 °F - 28.4 °F 29% 30.06 in - WSW 8.9 mph - N/A   Clear
6:00 PM 60 °F - 30 °F 20% 30.09 in 6 mi West 4.5 mph - -   Scattered Clouds
6:00 PM 57.2 °F - 28.4 °F 33% 30.09 in - WSW 6.7 mph - N/A   Clear
6:30 PM 55.4 °F - 30.2 °F 38% 30.09 in - WSW 6.7 mph - N/A   Clear
7:00 PM 53.6 °F - 35.6 °F 51% 30.09 in - WSW 6.7 mph - N/A   Clear
7:30 PM 53.6 °F - 35.6 °F 51% 30.12 in - WSW 4.5 mph - N/A   Clear
8:00 PM 53.6 °F - 35.6 °F 51% 30.12 in - Calm Calm - N/A   Clear
8:30 PM 51.8 °F - 35.6 °F 54% 30.12 in - Calm Calm - N/A   Clear
9:00 PM 49 °F - 36 °F 51% 30.14 in 6 mi Calm Calm - -  
9:00 PM 50.0 °F - 35.6 °F 58% 30.12 in - SSE 2.2 mph - N/A   Clear
9:30 PM 48.2 °F - 37.4 °F 66% 30.12 in - SSE 4.5 mph - N/A   Clear
10:00 PM 48.2 °F - 37.4 °F 66% 30.12 in 3.1 mi SE 4.5 mph - N/A   Smoke
10:30 PM 48.2 °F - 41.0 °F 76% 30.12 in - SE 6.7 mph - N/A   Clear
11:00 PM 46.4 °F 43.0 °F 41.0 °F 81% 30.12 in 3.1 mi SE 6.7 mph - N/A   Clear
11:30 PM 48.2 °F - 42.8 °F 82% 30.12 in - SE 6.7 mph - N/A   Clear